Weather History for KPHP - October, 2014

Change the Weather History Date:

Friday, October 3, 2014

  Actual Average Record
Temperature  
Mean Temperature 41 °F 54 °F  
Max Temperature 53 °F 69 °F 94 °F (1967)
Min Temperature 28 °F 39 °F 27 °F (1968)
Degree Days  
Heating Degree Days 24 11  
Month to date heating degree days 42 32  
Since 1 July heating degree days 233 218  
Cooling Degree Days 0 0  
Month to date cooling degree days 0 0  
Year to date cooling degree days 649 814  
Moisture  
Dew Point 24 °F    
Average Humidity 54    
Maximum Humidity 78    
Minimum Humidity 30    
Precipitation  
Precipitation 0.00 in 0.05 in 1.03 in (1951)
Month to date precipitation T 0.16  
Year to date precipitation 15.70 15.03  
Sea Level Pressure  
Sea Level Pressure 30.24 in    
Wind  
Wind Speed 20 mph (NW)    
Max Wind Speed 43 mph    
Max Gust Speed 52 mph    
Visibility 10 miles    
Events      
T = Trace of Precipitation, MM = Missing Value Source: NWS Daily Summary

Daily Weather History Graph

Daily Weather History Graph

Search for Another Location

Airport or City:

Trip Planner

Search our weather history database for the weather conditions in past years. The results will help you decide how hot, cold, wet, or windy it might be!

Date:

Astronomy

Oct. 03, 2014 Rise Set
Actual Time 6:46 AM MDT 6:23 PM MDT
Civil Twilight 6:17 AM MDT 6:52 PM MDT
Nautical Twilight 5:44 AM MDT 7:25 PM MDT
Astronomical Twilight 5:10 AM MDT 7:59 PM MDT
Moon 3:27 PM MDT (10/3) 12:59 AM MDT (10/3)
Length of Visible Light 12h 34m
Length of Day
11h 36m
Waxing Gibbous, 71% of the Moon is Illuminated
Oct 3
Waxing Gibbous
Oct 8
Full
Oct 15
Last Quarter
Oct 23
New
Oct 30
First Quarter

Hourly Weather History & Observations

Time (MDT) Temp. Windchill Dew Point Humidity Pressure Visibility Wind Dir Wind Speed Gust Speed Precip Events Conditions
12:55 AM 41.0 °F 30.7 °F 23.0 °F 49% 30.25 in 10.0 mi NNW 25.3 mph 34.5 mph N/A   Overcast
1:55 AM 39.9 °F 30.0 °F 21.9 °F 49% 30.27 in 10.0 mi NW 21.9 mph 32.2 mph N/A   Overcast
2:55 AM 39.9 °F 30.8 °F 21.9 °F 49% 30.27 in 10.0 mi NNW 18.4 mph 27.6 mph N/A   Overcast
3:55 AM 39.9 °F 30.8 °F 23.0 °F 51% 30.27 in 10.0 mi NW 18.4 mph 24.2 mph N/A   Overcast
4:55 AM 39.0 °F 27.6 °F 21.0 °F 49% 30.27 in 10.0 mi NW 27.6 mph 36.8 mph N/A   Overcast
5:55 AM 39.0 °F 31.4 °F 23.0 °F 53% 30.29 in 10.0 mi NW 12.7 mph 25.3 mph N/A   Overcast
6:55 AM 37.0 °F 26.4 °F 21.9 °F 54% 30.31 in 10.0 mi NW 20.7 mph 29.9 mph N/A   Scattered Clouds
7:55 AM 37.9 °F 28.5 °F 23.0 °F 55% 30.30 in 10.0 mi NW 17.3 mph - N/A   Clear
8:55 AM 42.1 °F 32.6 °F 25.0 °F 51% 30.29 in 10.0 mi NW 23.0 mph 36.8 mph N/A   Clear
9:55 AM 45.0 °F 34.4 °F 24.1 °F 44% 30.27 in 10.0 mi NW 35.7 mph 44.9 mph N/A   Clear
10:55 AM 46.0 °F 36.2 °F 25.0 °F 44% 30.28 in 10.0 mi NW 33.4 mph 41.4 mph N/A   Partly Cloudy
11:55 AM 48.0 °F - 25.0 °F 41% 30.25 in 10.0 mi NW 33.4 mph 42.6 mph N/A   Scattered Clouds
12:55 PM 50.0 °F - 25.0 °F 38% 30.23 in 10.0 mi NW 32.2 mph 43.7 mph N/A   Scattered Clouds
1:55 PM 52.0 °F - 25.0 °F 35% 30.20 in 10.0 mi NW 31.1 mph 39.1 mph N/A   Scattered Clouds
2:55 PM 51.1 °F - 23.0 °F 33% 30.19 in 10.0 mi NW 34.5 mph 47.2 mph N/A   Scattered Clouds
3:55 PM 52.0 °F - 21.9 °F 31% 30.18 in 10.0 mi NNW 32.2 mph 42.6 mph N/A   Clear
4:55 PM 51.1 °F - 23.0 °F 33% 30.19 in 10.0 mi NNW 26.5 mph 42.6 mph N/A   Clear
5:55 PM 48.0 °F - 24.1 °F 39% 30.19 in 10.0 mi NNW 16.1 mph 25.3 mph N/A   Clear
6:55 PM 43.0 °F 36.4 °F 25.0 °F 49% 30.20 in 10.0 mi NNW 12.7 mph - N/A   Clear
7:55 PM 41.0 °F 34.3 °F 25.0 °F 53% 30.21 in 10.0 mi NW 11.5 mph - N/A   Clear
8:55 PM 35.1 °F 31.0 °F 25.0 °F 67% 30.22 in 10.0 mi WNW 4.6 mph - N/A   Clear
9:55 PM 33.1 °F 30.0 °F 25.0 °F 72% 30.21 in 10.0 mi West 3.5 mph - N/A   Clear
10:55 PM 32.0 °F 28.7 °F 24.1 °F 73% 30.20 in 10.0 mi West 3.5 mph - N/A   Clear
11:55 PM 30.0 °F 22.4 °F 24.1 °F 79% 30.20 in 10.0 mi West 8.1 mph - N/A   Clear